| time (UTC) | temp F | wind direction | speed MPH | gust MPH | rain 1hr in | rain 24hr in | rain mn in | humidity % | barometer mb |
| 20260902192028 | 78 | 225 | 4.0 | 8.0 | 0.00 | 0.00 | 0.00 | 57 | 1023.9 |
| 20260902191029 | 78 | 203 | 3.0 | 7.0 | 0.00 | 0.00 | 0.00 | 56 | 1023.6 |
| 20260902190029 | 79 | 225 | 3.0 | 7.0 | 0.00 | 0.00 | 0.00 | 55 | 1023.4 |
| 20260902185028 | 79 | 225 | 2.0 | 4.0 | 0.00 | 0.00 | 0.00 | 54 | 1023.3 |
| 20260902184028 | 80 | 180 | 3.0 | 6.0 | 0.00 | 0.00 | 0.00 | 53 | 1023.1 |
| 20260902183028 | 80 | 203 | 4.0 | 7.0 | 0.00 | 0.00 | 0.00 | 53 | 1022.8 |
| 20260902182028 | 80 | 203 | 5.0 | 8.0 | 0.00 | 0.00 | 0.00 | 52 | 1022.6 |
| 20260902181028 | 81 | 203 | 6.0 | 9.0 | 0.00 | 0.00 | 0.00 | 51 | 1022.6 |
| 20260902180028 | 81 | 203 | 6.0 | 10.0 | 0.00 | 0.00 | 0.00 | 50 | 1022.5 |
| 20260902175028 | 82 | 180 | 5.0 | 9.0 | 0.00 | 0.00 | 0.00 | 49 | 1022.5 |
| 20260902174028 | 82 | 180 | 5.0 | 9.0 | 0.00 | 0.00 | 0.00 | 48 | 1022.4 |
| 20260902173028 | 83 | 158 | 5.0 | 9.0 | 0.00 | 0.00 | 0.00 | 47 | 1022.4 |
| 20260902172028 | 84 | 158 | 5.0 | 10.0 | 0.00 | 0.00 | 0.00 | 46 | 1022.4 |
| 20260902171028 | 85 | 180 | 6.0 | 10.0 | 0.00 | 0.00 | 0.00 | 46 | 1022.2 |
| 20260902170030 | 85 | 180 | 6.0 | 11.0 | 0.00 | 0.00 | 0.00 | 45 | 1022.3 |
| 20260902165028 | 85 | 225 | 5.0 | 10.0 | 0.00 | 0.00 | 0.00 | 44 | 1022.3 |
| 20260902164029 | 85 | 225 | 6.0 | 12.0 | 0.00 | 0.00 | 0.00 | 43 | 1022.3 |
| 20260902163048 | 86 | 225 | 6.0 | 10.0 | 0.00 | 0.00 | 0.00 | 43 | 1022.4 |
| 20260902162028 | 86 | 225 | 6.0 | 12.0 | 0.00 | 0.00 | 0.00 | 43 | 1022.4 |
| 20260902161029 | 86 | 203 | 9.0 | 17.0 | 0.00 | 0.00 | 0.00 | 42 | 1022.3 |
| 20260902160028 | 86 | 203 | 10.0 | 16.0 | 0.00 | 0.00 | 0.00 | 42 | 1022.4 |
| 20260902155048 | 87 | 180 | 7.0 | 12.0 | 0.00 | 0.00 | 0.00 | 41 | 1022.5 |
| 20260902154028 | 86 | 203 | 9.0 | 17.0 | 0.00 | 0.00 | 0.00 | 41 | 1022.4 |
| 20260902153028 | 87 | 203 | 8.0 | 14.0 | 0.00 | 0.00 | 0.00 | 40 | 1022.4 |
| 20260902152028 | 87 | 180 | 10.0 | 17.0 | 0.00 | 0.00 | 0.00 | 39 | 1022.4 |
| 20260902151028 | 88 | 180 | 8.0 | 15.0 | 0.00 | 0.00 | 0.00 | 39 | 1022.5 |
| 20260902150027 | 88 | 180 | 8.0 | 17.0 | 0.00 | 0.00 | 0.00 | 39 | 1022.5 |
| 20260902145028 | 87 | 180 | 10.0 | 21.0 | 0.00 | 0.00 | 0.00 | 40 | 1022.5 |
| 20260902144027 | 87 | 180 | 10.0 | 19.0 | 0.00 | 0.00 | 0.00 | 40 | 1022.6 |
| 20260902143028 | 88 | 180 | 7.0 | 16.0 | 0.00 | 0.00 | 0.00 | 39 | 1022.6 |
| 20260902142028 | 87 | 180 | 9.0 | 16.0 | 0.00 | 0.00 | 0.00 | 41 | 1022.7 |
| 20260902141108 | 88 | 180 | 8.0 | 17.0 | 0.00 | 0.00 | 0.00 | 42 | 1022.8 |
| 20260902140108 | 87 | 180 | 9.0 | 18.0 | 0.00 | 0.00 | 0.00 | 42 | 1022.8 |
| 20260902135028 | 88 | 180 | 10.0 | 20.0 | 0.00 | 0.00 | 0.00 | 41 | 1022.9 |
| 20260902134028 | 88 | 135 | 8.0 | 15.0 | 0.00 | 0.00 | 0.00 | 41 | 1023.0 |
| 20260902133027 | 88 | 158 | 8.0 | 18.0 | 0.00 | 0.00 | 0.00 | 42 | 1023.0 |
| 20260902132027 | 88 | 180 | 6.0 | 14.0 | 0.00 | 0.00 | 0.00 | 41 | 1023.1 |
| 20260902131107 | 88 | 135 | 7.0 | 18.0 | 0.00 | 0.00 | 0.00 | 41 | 1023.2 |
| 20260902130027 | 88 | 135 | 6.0 | 12.0 | 0.00 | 0.00 | 0.00 | 41 | 1023.1 |
| 20260902125028 | 88 | 180 | 7.0 | 14.0 | 0.00 | 0.00 | 0.00 | 41 | 1023.2 |
| 20260902124027 | 87 | 158 | 5.0 | 18.0 | 0.00 | 0.00 | 0.00 | 41 | 1023.2 |
| 20260902123027 | 86 | 158 | 7.0 | 15.0 | 0.00 | 0.00 | 0.00 | 43 | 1023.4 |
| 20260902122027 | 87 | 180 | 6.0 | 11.0 | 0.00 | 0.00 | 0.00 | 44 | 1023.5 |
| 20260902121027 | 87 | 180 | 5.0 | 12.0 | 0.00 | 0.00 | 0.00 | 44 | 1023.5 |
| 20260902120048 | 86 | 158 | 6.0 | 11.0 | 0.00 | 0.00 | 0.00 | 46 | 1023.6 |
| 20260902115027 | 85 | 158 | 5.0 | 10.0 | 0.00 | 0.00 | 0.00 | 45 | 1023.8 |
| 20260902114027 | 85 | 158 | 5.0 | 10.0 | 0.00 | 0.00 | 0.00 | 45 | 1023.8 |
| 20260902113027 | 84 | 158 | 5.0 | 9.0 | 0.00 | 0.00 | 0.00 | 46 | 1023.8 |
| 20260902112027 | 84 | 180 | 5.0 | 10.0 | 0.00 | 0.00 | 0.00 | 46 | 1023.9 |
| 20260902111027 | 83 | 158 | 4.0 | 9.0 | 0.00 | 0.00 | 0.00 | 46 | 1023.8 |
| 20260902110047 | 82 | 203 | 6.0 | 11.0 | 0.00 | 0.00 | 0.00 | 46 | 1023.9 |
| 20260902105027 | 83 | 135 | 3.0 | 8.0 | 0.00 | 0.00 | 0.00 | 45 | 1024.1 |
| 20260902104027 | 82 | 180 | 4.0 | 11.0 | 0.00 | 0.00 | 0.00 | 45 | 1024.2 |
| 20260902103027 | 82 | 180 | 4.0 | 8.0 | 0.00 | 0.00 | 0.00 | 45 | 1024.3 |
| 20260902102027 | 82 | 158 | 3.0 | 7.0 | 0.00 | 0.00 | 0.00 | 44 | 1024.3 |
| 20260902101027 | 81 | 158 | 3.0 | 7.0 | 0.00 | 0.00 | 0.00 | 47 | 1024.3 |
| 20260902100027 | 80 | 203 | 3.0 | 5.0 | 0.00 | 0.00 | 0.00 | 47 | 1024.3 |
| 20260902095027 | 80 | 113 | 2.0 | 5.0 | 0.00 | 0.00 | 0.00 | 47 | 1024.3 |
| 20260902094027 | 80 | 158 | 3.0 | 5.0 | 0.00 | 0.00 | 0.00 | 46 | 1024.4 |
| 20260902093047 | 81 | 158 | 2.0 | 5.0 | 0.00 | 0.00 | 0.00 | 46 | 1024.5 |
| 20260902092027 | 80 | 180 | 1.0 | 3.0 | 0.00 | 0.00 | 0.00 | 49 | 1024.4 |
| 20260902091027 | 79 | 158 | 2.0 | 5.0 | 0.00 | 0.00 | 0.00 | 51 | 1024.4 |
| 20260902090029 | 79 | 158 | 2.0 | 6.0 | 0.00 | 0.00 | 0.00 | 53 | 1024.4 |
| 20260902085029 | 78 | 180 | 2.0 | 4.0 | 0.00 | 0.00 | 0.00 | 55 | 1024.3 |
| 20260902084029 | 78 | 158 | 2.0 | 4.0 | 0.00 | 0.00 | 0.00 | 56 | 1024.2 |
| 20260902083049 | 77 | 158 | 2.0 | 4.0 | 0.00 | 0.00 | 0.00 | 58 | 1024.2 |
| 20260902082029 | 76 | 225 | 1.0 | 3.0 | 0.00 | 0.00 | 0.00 | 63 | 1024.1 |
| 20260902081029 | 76 | 158 | 1.0 | 3.0 | 0.00 | 0.00 | 0.00 | 62 | 1024.0 |
| 20260902080029 | 74 | 90 | 2.0 | 6.0 | 0.00 | 0.00 | 0.00 | 66 | 1023.8 |
| 20260902075049 | 73 | 68 | 3.0 | 7.0 | 0.00 | 0.00 | 0.00 | 67 | 1023.7 |
| 20260902074029 | 71 | 45 | 5.0 | 11.0 | 0.00 | 0.00 | 0.00 | 70 | 1023.4 |
| 20260902073029 | 70 | 45 | 7.0 | 10.0 | 0.00 | 0.00 | 0.00 | 72 | 1023.4 |
| 20260902072028 | 70 | 45 | 6.0 | 9.0 | 0.00 | 0.00 | 0.00 | 72 | 1023.5 |
| 20260902071029 | 69 | 45 | 5.0 | 8.0 | 0.00 | 0.00 | 0.00 | 73 | 1023.3 |
| 20260902070029 | 68 | 45 | 6.0 | 8.0 | 0.00 | 0.00 | 0.00 | 75 | 1023.3 |
| 20260902065029 | 68 | 45 | 5.0 | 7.0 | 0.00 | 0.00 | 0.00 | 76 | 1023.2 |
| 20260902064029 | 67 | 45 | 6.0 | 8.0 | 0.00 | 0.00 | 0.00 | 77 | 1023.0 |
| 20260902063028 | 66 | 45 | 6.0 | 9.0 | 0.00 | 0.00 | 0.00 | 78 | 1023.0 |
| 20260902062028 | 66 | 23 | 6.0 | 9.0 | 0.00 | 0.00 | 0.00 | 79 | 1023.0 |
| 20260902061029 | 65 | 45 | 6.0 | 8.0 | 0.00 | 0.00 | 0.00 | 80 | 1022.7 |
| 20260902060028 | 65 | 45 | 5.0 | 8.0 | 0.00 | 0.00 | 0.00 | 80 | 1022.8 |
| 20260902055028 | 66 | 23 | 3.0 | 5.0 | 0.00 | 0.00 | 0.00 | 79 | 1022.6 |
| 20260902054028 | 65 | 45 | 3.0 | 6.0 | 0.00 | 0.00 | 0.00 | 80 | 1022.5 |
| 20260902053048 | 65 | 45 | 3.0 | 6.0 | 0.00 | 0.00 | 0.00 | 81 | 1022.7 |
| 20260902052028 | 65 | 45 | 4.0 | 7.0 | 0.00 | 0.00 | 0.00 | 80 | 1022.6 |
| 20260902051028 | 65 | 45 | 4.0 | 7.0 | 0.00 | 0.00 | 0.00 | 80 | 1022.6 |
| 20260902050108 | 65 | 45 | 3.0 | 6.0 | 0.00 | 0.00 | 0.00 | 80 | 1022.5 |
| 20260902045028 | 66 | 0.0 | 1.0 | 0.00 | 0.00 | 0.00 | 80 | 1022.6 | |
| 20260902044028 | 66 | 0 | 2.0 | 4.0 | 0.00 | 0.00 | 0.00 | 80 | 1022.5 |
| 20260902043028 | 65 | 45 | 3.0 | 4.0 | 0.00 | 0.00 | 0.00 | 80 | 1022.6 |
| 20260902042028 | 65 | 45 | 4.0 | 7.0 | 0.00 | 0.00 | 0.00 | 80 | 1022.6 |
| 20260902041028 | 66 | 45 | 4.0 | 7.0 | 0.00 | 0.00 | 0.00 | 79 | 1022.7 |
| 20260902040028 | 66 | 45 | 1.0 | 3.0 | 0.00 | 0.00 | 0.00 | 79 | 1022.8 |
| 20260902035048 | 66 | 45 | 1.0 | 3.0 | 0.00 | 0.00 | 0.00 | 79 | 1022.8 |
| 20260902034048 | 66 | 45 | 3.0 | 5.0 | 0.00 | 0.00 | 0.00 | 80 | 1022.9 |
| 20260902033028 | 66 | 45 | 4.0 | 8.0 | 0.00 | 0.00 | 0.00 | 80 | 1022.9 |
| 20260902032048 | 66 | 68 | 3.0 | 6.0 | 0.00 | 0.00 | 0.00 | 79 | 1022.9 |
| 20260902031048 | 66 | 45 | 4.0 | 6.0 | 0.00 | 0.00 | 0.00 | 79 | 1022.8 |
| 20260902030048 | 67 | 45 | 3.0 | 5.0 | 0.00 | 0.00 | 0.00 | 79 | 1022.7 |
| 20260902025028 | 67 | 0.0 | 3.0 | 0.00 | 0.00 | 0.00 | 78 | 1022.9 | |
| 20260902024028 | 67 | 0.0 | 3.0 | 0.00 | 0.00 | 0.00 | 80 | 1023.0 | |
| 20260902023028 | 67 | 270 | 2.0 | 4.0 | 0.00 | 0.00 | 0.00 | 80 | 1023.1 |
| 20260902022028 | 67 | 248 | 1.0 | 4.0 | 0.00 | 0.00 | 0.00 | 79 | 1023.0 |
| 20260902021027 | 67 | 0 | 2.0 | 5.0 | 0.00 | 0.00 | 0.00 | 78 | 1023.1 |
| 20260902020028 | 67 | 45 | 5.0 | 9.0 | 0.00 | 0.00 | 0.00 | 77 | 1022.8 |
| 20260902015027 | 67 | 68 | 4.0 | 10.0 | 0.00 | 0.00 | 0.00 | 78 | 1022.7 |
| 20260902014028 | 68 | 45 | 3.0 | 6.0 | 0.00 | 0.00 | 0.00 | 77 | 1022.9 |
| 20260902013027 | 68 | 45 | 3.0 | 5.0 | 0.00 | 0.00 | 0.00 | 77 | 1023.0 |
| 20260902012027 | 68 | 45 | 3.0 | 5.0 | 0.00 | 0.00 | 0.00 | 76 | 1023.0 |
| 20260902011049 | 68 | 23 | 2.0 | 4.0 | 0.00 | 0.00 | 0.00 | 76 | 1023.0 |
| 20260902010027 | 69 | 45 | 1.0 | 3.0 | 0.00 | 0.00 | 0.00 | 75 | 1023.0 |
| 20260902005027 | 69 | 0 | 1.0 | 4.0 | 0.00 | 0.00 | 0.00 | 75 | 1023.0 |
| 20260902004028 | 68 | 68 | 2.0 | 5.0 | 0.00 | 0.00 | 0.00 | 76 | 1023.2 |
| 20260902003027 | 68 | 23 | 4.0 | 6.0 | 0.00 | 0.00 | 0.00 | 75 | 1023.1 |
| 20260902002027 | 68 | 45 | 3.0 | 7.0 | 0.00 | 0.00 | 0.00 | 75 | 1023.0 |
| 20260902001027 | 68 | 23 | 4.0 | 7.0 | 0.00 | 0.00 | 0.00 | 75 | 1022.9 |
| 20260902000027 | 68 | 23 | 5.0 | 8.0 | 0.00 | 0.00 | 0.00 | 77 | 1022.9 |
| 20260901235027 | 69 | 23 | 5.0 | 8.0 | 0.00 | 0.00 | 0.00 | 77 | 1022.9 |
| 20260901233027 | 69 | 0 | 4.0 | 6.0 | 0.00 | 0.00 | 0.00 | 77 | 1022.7 |
| 20260901232027 | 68 | 0 | 5.0 | 8.0 | 0.00 | 0.00 | 0.00 | 78 | 1022.7 |
| 20260901231027 | 68 | 23 | 5.0 | 9.0 | 0.00 | 0.00 | 0.00 | 78 | 1022.6 |
| 20260901230028 | 68 | 45 | 6.0 | 8.0 | 0.00 | 0.00 | 0.00 | 78 | 1022.4 |
| 20260901225027 | 69 | 45 | 5.0 | 8.0 | 0.00 | 0.00 | 0.00 | 78 | 1022.5 |
| 20260901224027 | 69 | 23 | 5.0 | 7.0 | 0.00 | 0.00 | 0.00 | 76 | 1022.5 |
| 20260901223107 | 70 | 0 | 5.0 | 7.0 | 0.00 | 0.00 | 0.00 | 76 | 1022.5 |
| 20260901222027 | 70 | 23 | 4.0 | 7.0 | 0.00 | 0.00 | 0.00 | 76 | 1022.4 |
| 20260901221027 | 70 | 45 | 3.0 | 5.0 | 0.00 | 0.00 | 0.00 | 77 | 1022.4 |
| 20260901220027 | 70 | 68 | 3.0 | 5.0 | 0.00 | 0.00 | 0.00 | 76 | 1022.3 |
| 20260901215027 | 71 | 23 | 4.0 | 6.0 | 0.00 | 0.00 | 0.00 | 74 | 1022.1 |
| 20260901214027 | 71 | 45 | 2.0 | 5.0 | 0.00 | 0.00 | 0.00 | 72 | 1022.2 |
| 20260901213047 | 71 | 315 | 1.0 | 4.0 | 0.00 | 0.00 | 0.00 | 72 | 1021.9 |
| 20260901212027 | 71 | 45 | 2.0 | 5.0 | 0.00 | 0.00 | 0.00 | 73 | 1021.9 |
| 20260901211047 | 71 | 293 | 2.0 | 4.0 | 0.00 | 0.00 | 0.00 | 74 | 1021.8 |
| 20260901210027 | 72 | 293 | 1.0 | 3.0 | 0.00 | 0.00 | 0.00 | 72 | 1021.8 |
| 20260901205027 | 72 | 0.0 | 0.0 | 0.00 | 0.00 | 0.00 | 73 | 1021.8 | |
| 20260901204027 | 72 | 45 | 1.0 | 3.0 | 0.00 | 0.00 | 0.00 | 71 | 1021.6 |
| 20260901203028 | 72 | 68 | 1.0 | 3.0 | 0.00 | 0.00 | 0.00 | 72 | 1021.4 |
| 20260901202027 | 72 | 315 | 2.0 | 4.0 | 0.00 | 0.00 | 0.00 | 71 | 1021.4 |
| 20260901201027 | 73 | 338 | 3.0 | 6.0 | 0.00 | 0.00 | 0.00 | 71 | 1021.3 |
| 20260901200027 | 72 | 0 | 3.0 | 7.0 | 0.00 | 0.00 | 0.00 | 71 | 1021.1 |
| 20260901195027 | 72 | 0 | 4.0 | 7.0 | 0.00 | 0.00 | 0.00 | 71 | 1021.1 |
| 20260901194027 | 73 | 0 | 3.0 | 6.0 | 0.00 | 0.00 | 0.00 | 71 | 1021.1 |
| 20260901193027 | 74 | 0 | 2.0 | 4.0 | 0.00 | 0.00 | 0.00 | 70 | 1020.8 |